Year,Month,Day,Hour,Minute,Value (Times are PST for temperature in C)
2016,06,15,00,00,8.00
2016,06,15,00,01,8.00
2016,06,15,00,02,8.00
2016,06,15,00,03,8.00
2016,06,15,00,04,8.00
2016,06,15,00,05,8.00
2016,06,15,00,06,7.90
2016,06,15,00,07,7.90
2016,06,15,00,08,7.90
2016,06,15,00,09,7.90
2016,06,15,00,10,7.90
2016,06,15,00,11,7.90
2016,06,15,00,12,7.90
2016,06,15,00,13,7.90
2016,06,15,00,14,7.90
2016,06,15,00,15,7.90
2016,06,15,00,16,7.90
2016,06,15,00,17,8.00
2016,06,15,00,18,8.00
2016,06,15,00,19,8.00
2016,06,15,00,20,8.00
2016,06,15,00,21,8.00
2016,06,15,00,22,8.00
2016,06,15,00,23,8.00
2016,06,15,00,24,8.00
2016,06,15,00,25,7.90
2016,06,15,00,26,7.90
2016,06,15,00,27,7.90
2016,06,15,00,28,7.90
2016,06,15,00,29,7.90
2016,06,15,00,30,7.90
2016,06,15,00,31,7.90
2016,06,15,00,32,7.90
2016,06,15,00,33,7.90
2016,06,15,00,34,7.90
2016,06,15,00,35,7.90
2016,06,15,00,36,7.90
2016,06,15,00,37,8.00
2016,06,15,00,38,8.00
2016,06,15,00,39,8.00
2016,06,15,00,40,8.00
2016,06,15,00,41,8.00
2016,06,15,00,42,8.00
2016,06,15,00,43,8.00
2016,06,15,00,44,8.00
2016,06,15,00,45,8.00
2016,06,15,00,46,8.00
2016,06,15,00,47,8.00
2016,06,15,00,48,8.00
2016,06,15,00,49,8.00
2016,06,15,00,50,8.00
2016,06,15,00,51,8.00
2016,06,15,00,52,8.00
2016,06,15,00,53,8.00
2016,06,15,00,54,8.00
2016,06,15,00,55,8.00
2016,06,15,00,56,8.00
2016,06,15,00,57,8.00
2016,06,15,00,58,8.00
2016,06,15,00,59,8.00
2016,06,15,01,00,8.00
2016,06,15,01,01,8.00
2016,06,15,01,02,8.00
2016,06,15,01,03,8.00
2016,06,15,01,04,8.00
2016,06,15,01,05,7.90
2016,06,15,01,06,7.90
2016,06,15,01,07,7.90
2016,06,15,01,08,7.90
2016,06,15,01,09,7.90
2016,06,15,01,10,7.90
2016,06,15,01,11,7.90
2016,06,15,01,12,7.90
2016,06,15,01,13,7.90
2016,06,15,01,14,7.90
2016,06,15,01,15,7.90
2016,06,15,01,16,7.90
2016,06,15,01,17,7.90
2016,06,15,01,18,7.90
2016,06,15,01,19,7.90
2016,06,15,01,20,7.90
2016,06,15,01,21,7.90
2016,06,15,01,22,7.90
2016,06,15,01,23,7.90
2016,06,15,01,24,7.90
2016,06,15,01,25,7.80
2016,06,15,01,26,7.80
2016,06,15,01,27,7.80
2016,06,15,01,28,7.80
2016,06,15,01,29,7.80
2016,06,15,01,30,7.80
2016,06,15,01,31,7.80
2016,06,15,01,32,7.80
2016,06,15,01,33,7.80
2016,06,15,01,34,7.80
2016,06,15,01,35,7.80
2016,06,15,01,36,7.80
2016,06,15,01,37,7.80
2016,06,15,01,38,7.80
2016,06,15,01,39,7.80
2016,06,15,01,40,7.80
2016,06,15,01,41,7.80
2016,06,15,01,42,7.70
2016,06,15,01,43,7.70
2016,06,15,01,44,7.70
2016,06,15,01,45,7.70
2016,06,15,01,46,7.70
2016,06,15,01,47,7.70
2016,06,15,01,48,7.70
2016,06,15,01,49,7.70
2016,06,15,01,50,7.70
2016,06,15,01,51,7.60
2016,06,15,01,52,7.60
2016,06,15,01,53,7.60
2016,06,15,01,54,7.60
2016,06,15,01,55,7.60
2016,06,15,01,56,7.60
2016,06,15,01,57,7.60
2016,06,15,01,58,7.60
2016,06,15,01,59,7.50
2016,06,15,02,00,7.50
2016,06,15,02,01,7.50
2016,06,15,02,02,7.50
2016,06,15,02,03,7.50
2016,06,15,02,04,7.50
2016,06,15,02,05,7.40
2016,06,15,02,06,7.40
2016,06,15,02,07,7.40
2016,06,15,02,08,7.40
2016,06,15,02,09,7.40
2016,06,15,02,10,7.40
2016,06,15,02,11,7.40
2016,06,15,02,12,7.40
2016,06,15,02,13,7.40
2016,06,15,02,14,7.40
2016,06,15,02,15,7.40
2016,06,15,02,16,7.40
2016,06,15,02,17,7.40
2016,06,15,02,18,7.30
2016,06,15,02,19,7.30
2016,06,15,02,20,7.30
2016,06,15,02,21,7.40
2016,06,15,02,22,7.40
2016,06,15,02,23,7.40
2016,06,15,02,24,7.40
2016,06,15,02,25,7.40
2016,06,15,02,26,7.40
2016,06,15,02,27,7.40
2016,06,15,02,28,7.40
2016,06,15,02,29,7.40
2016,06,15,02,30,7.40
2016,06,15,02,31,7.40
2016,06,15,02,32,7.40
2016,06,15,02,33,7.40
2016,06,15,02,34,7.40
2016,06,15,02,35,7.40
2016,06,15,02,36,7.40
2016,06,15,02,37,7.40
2016,06,15,02,38,7.40
2016,06,15,02,39,7.40
2016,06,15,02,40,7.40
2016,06,15,02,41,7.40
2016,06,15,02,42,7.30
2016,06,15,02,43,7.30
2016,06,15,02,44,7.30
2016,06,15,02,45,7.30
2016,06,15,02,46,7.30
2016,06,15,02,47,7.30
2016,06,15,02,48,7.30
2016,06,15,02,49,7.30
2016,06,15,02,50,7.30
2016,06,15,02,51,7.30
2016,06,15,02,52,7.30
2016,06,15,02,53,7.30
2016,06,15,02,54,7.30
2016,06,15,02,55,7.30
2016,06,15,02,56,7.30
2016,06,15,02,57,7.30
2016,06,15,02,58,7.30
2016,06,15,02,59,7.30
2016,06,15,03,00,7.30
2016,06,15,03,01,7.30
2016,06,15,03,02,7.30
2016,06,15,03,03,7.30
2016,06,15,03,04,7.30
2016,06,15,03,05,7.30
2016,06,15,03,06,7.30
2016,06,15,03,07,7.30
2016,06,15,03,08,7.30
2016,06,15,03,09,7.30
2016,06,15,03,10,7.20
2016,06,15,03,11,7.20
2016,06,15,03,12,7.20
2016,06,15,03,13,7.20
2016,06,15,03,14,7.20
2016,06,15,03,15,7.20
2016,06,15,03,16,7.20
2016,06,15,03,17,7.20
2016,06,15,03,18,7.20
2016,06,15,03,19,7.20
2016,06,15,03,20,7.20
2016,06,15,03,21,7.20
2016,06,15,03,22,7.20
2016,06,15,03,23,7.10
2016,06,15,03,24,7.10
2016,06,15,03,25,7.20
2016,06,15,03,26,7.10
2016,06,15,03,27,7.10
2016,06,15,03,28,7.10
2016,06,15,03,29,7.10
2016,06,15,03,30,7.10
2016,06,15,03,31,7.10
2016,06,15,03,32,7.10
2016,06,15,03,33,7.10
2016,06,15,03,34,7.10
2016,06,15,03,35,7.10
2016,06,15,03,36,7.10
2016,06,15,03,37,7.10
2016,06,15,03,38,7.10
2016,06,15,03,39,7.10
2016,06,15,03,40,7.10
2016,06,15,03,41,7.10
2016,06,15,03,42,7.10
2016,06,15,03,43,7.10
2016,06,15,03,44,7.10
2016,06,15,03,45,7.10
2016,06,15,03,46,7.10
2016,06,15,03,47,7.10
2016,06,15,03,48,7.10
2016,06,15,03,49,7.10
2016,06,15,03,50,7.10
2016,06,15,03,51,7.00
2016,06,15,03,52,7.00
2016,06,15,03,53,7.00
2016,06,15,03,54,7.00
2016,06,15,03,55,7.00
2016,06,15,03,56,6.90
2016,06,15,03,57,6.90
2016,06,15,03,58,6.90
2016,06,15,03,59,6.90
2016,06,15,04,00,6.90
2016,06,15,04,01,6.90
2016,06,15,04,02,6.90
2016,06,15,04,03,6.90
2016,06,15,04,04,6.80
2016,06,15,04,05,6.80
2016,06,15,04,06,6.80
2016,06,15,04,07,6.80
2016,06,15,04,08,6.80
2016,06,15,04,09,6.80
2016,06,15,04,10,6.80
2016,06,15,04,11,6.80
2016,06,15,04,12,6.80
2016,06,15,04,13,6.80
2016,06,15,04,14,6.80
2016,06,15,04,15,6.80
2016,06,15,04,16,6.80
2016,06,15,04,17,6.80
2016,06,15,04,18,6.80
2016,06,15,04,19,6.80
2016,06,15,04,20,6.80
2016,06,15,04,21,6.80
2016,06,15,04,22,6.80
2016,06,15,04,23,6.80
2016,06,15,04,24,6.80
2016,06,15,04,25,6.80
2016,06,15,04,26,6.80
2016,06,15,04,27,6.80
2016,06,15,04,28,6.80
2016,06,15,04,29,6.70
2016,06,15,04,30,6.70
2016,06,15,04,31,6.70
2016,06,15,04,32,6.70
2016,06,15,04,33,6.70
2016,06,15,04,34,6.70
2016,06,15,04,35,6.70
2016,06,15,04,36,6.70
2016,06,15,04,37,6.70
2016,06,15,04,38,6.70
2016,06,15,04,39,6.70
2016,06,15,04,40,6.70
2016,06,15,04,41,6.70
2016,06,15,04,42,6.70
2016,06,15,04,43,6.60
2016,06,15,04,44,6.60
2016,06,15,04,45,6.60
2016,06,15,04,46,6.60
2016,06,15,04,47,6.60
2016,06,15,04,48,6.60
2016,06,15,04,49,6.60
2016,06,15,04,50,6.60
2016,06,15,04,51,6.60
2016,06,15,04,52,6.60
2016,06,15,04,53,6.60
2016,06,15,04,54,6.60
2016,06,15,04,55,6.60
2016,06,15,04,56,6.60
2016,06,15,04,57,6.60
2016,06,15,04,58,6.60
2016,06,15,04,59,6.60
2016,06,15,05,00,6.60
2016,06,15,05,01,6.60
2016,06,15,05,02,6.60
2016,06,15,05,03,6.60
2016,06,15,05,04,6.60
2016,06,15,05,05,6.60
2016,06,15,05,06,6.60
2016,06,15,05,07,6.60
2016,06,15,05,08,6.60
2016,06,15,05,09,6.60
2016,06,15,05,10,6.60
2016,06,15,05,11,6.60
2016,06,15,05,12,6.60
2016,06,15,05,13,6.60
2016,06,15,05,14,6.60
2016,06,15,05,15,6.70
2016,06,15,05,16,6.70
2016,06,15,05,17,6.70
2016,06,15,05,18,6.70
2016,06,15,05,19,6.70
2016,06,15,05,20,6.60
2016,06,15,05,21,6.60
2016,06,15,05,22,6.60
2016,06,15,05,23,6.60
2016,06,15,05,24,6.70
2016,06,15,05,25,6.70
2016,06,15,05,26,6.70
2016,06,15,05,27,6.70
2016,06,15,05,28,6.70
2016,06,15,05,29,6.70
2016,06,15,05,30,6.70
2016,06,15,05,31,6.70
2016,06,15,05,32,6.70
2016,06,15,05,33,6.70
2016,06,15,05,34,6.70
2016,06,15,05,35,6.70
2016,06,15,05,36,6.60
2016,06,15,05,37,6.60
2016,06,15,05,38,6.60
2016,06,15,05,39,6.60
2016,06,15,05,40,6.60
2016,06,15,05,41,6.60
2016,06,15,05,42,6.60
2016,06,15,05,43,6.60
2016,06,15,05,44,6.60
2016,06,15,05,45,6.60
2016,06,15,05,46,6.60
2016,06,15,05,47,6.60
2016,06,15,05,48,6.60
2016,06,15,05,49,6.60
2016,06,15,05,50,6.60
2016,06,15,05,51,6.60
2016,06,15,05,52,6.60
2016,06,15,05,53,6.60
2016,06,15,05,54,6.60
2016,06,15,05,55,6.60
2016,06,15,05,56,6.60
2016,06,15,05,57,6.60
2016,06,15,05,58,6.60
2016,06,15,05,59,6.60
2016,06,15,06,00,6.60
2016,06,15,06,01,6.60
2016,06,15,06,02,6.60
2016,06,15,06,03,6.60
2016,06,15,06,04,6.60
2016,06,15,06,05,6.60
2016,06,15,06,06,6.60
2016,06,15,06,07,6.60
2016,06,15,06,08,6.60
2016,06,15,06,09,6.60
2016,06,15,06,10,6.60
2016,06,15,06,11,6.60
2016,06,15,06,12,6.60
2016,06,15,06,13,6.60
2016,06,15,06,14,6.60
2016,06,15,06,15,6.60
2016,06,15,06,16,6.60
2016,06,15,06,17,6.60
2016,06,15,06,18,6.60
2016,06,15,06,19,6.60
2016,06,15,06,20,6.60
2016,06,15,06,21,6.70
2016,06,15,06,22,6.70
2016,06,15,06,23,6.70
2016,06,15,06,24,6.70
2016,06,15,06,25,6.70
2016,06,15,06,26,6.70
2016,06,15,06,27,6.70
2016,06,15,06,28,6.70
2016,06,15,06,29,6.80
2016,06,15,06,30,6.80
2016,06,15,06,31,6.80
2016,06,15,06,32,6.80
2016,06,15,06,33,6.80
2016,06,15,06,34,6.80
2016,06,15,06,35,6.80
2016,06,15,06,36,6.80
2016,06,15,06,37,6.80
2016,06,15,06,38,6.80
2016,06,15,06,39,6.80
2016,06,15,06,40,6.80
2016,06,15,06,41,6.80
2016,06,15,06,42,6.80
2016,06,15,06,43,6.80
2016,06,15,06,44,6.80
2016,06,15,06,45,6.80
2016,06,15,06,46,6.80
2016,06,15,06,47,6.80
2016,06,15,06,48,6.80
2016,06,15,06,49,6.80
2016,06,15,06,50,6.80
2016,06,15,06,51,6.80
2016,06,15,06,52,6.80
2016,06,15,06,53,6.80
2016,06,15,06,54,6.80
2016,06,15,06,55,6.90
2016,06,15,06,56,6.90
2016,06,15,06,57,6.90
2016,06,15,06,58,6.90
2016,06,15,06,59,6.90
2016,06,15,07,00,7.00
2016,06,15,07,01,7.00
2016,06,15,07,02,7.00
2016,06,15,07,03,7.10
2016,06,15,07,04,7.10
2016,06,15,07,05,7.10
2016,06,15,07,06,7.10
2016,06,15,07,07,7.10
2016,06,15,07,08,7.20
2016,06,15,07,09,7.20
2016,06,15,07,10,7.20
2016,06,15,07,11,7.20
2016,06,15,07,12,7.20
2016,06,15,07,13,7.30
2016,06,15,07,14,7.30
2016,06,15,07,15,7.30
2016,06,15,07,16,7.30
2016,06,15,07,17,7.30
2016,06,15,07,18,7.30
2016,06,15,07,19,7.30
2016,06,15,07,20,7.30
2016,06,15,07,21,7.30
2016,06,15,07,22,7.30
2016,06,15,07,23,7.30
2016,06,15,07,24,7.40
2016,06,15,07,25,7.40
2016,06,15,07,26,7.40
2016,06,15,07,27,7.40
2016,06,15,07,28,7.40
2016,06,15,07,29,7.40
2016,06,15,07,30,7.40
2016,06,15,07,31,7.40
2016,06,15,07,32,7.40
2016,06,15,07,33,7.40
2016,06,15,07,34,7.40
2016,06,15,07,35,7.50
2016,06,15,07,36,7.50
2016,06,15,07,37,7.50
2016,06,15,07,38,7.50
2016,06,15,07,39,7.60
2016,06,15,07,40,7.70
2016,06,15,07,41,7.70
2016,06,15,07,42,7.70
2016,06,15,07,43,7.80
2016,06,15,07,44,7.80
2016,06,15,07,45,7.90
2016,06,15,07,46,7.90
2016,06,15,07,47,8.00
2016,06,15,07,48,8.10
2016,06,15,07,49,8.10
2016,06,15,07,50,8.20
2016,06,15,07,51,8.30
2016,06,15,07,52,8.40
2016,06,15,07,53,8.40
2016,06,15,07,54,8.40
2016,06,15,07,55,8.50
2016,06,15,07,56,8.50
2016,06,15,07,57,8.60
2016,06,15,07,58,8.60
2016,06,15,07,59,8.60
2016,06,15,08,00,8.70
2016,06,15,08,01,8.70
2016,06,15,08,02,8.70
2016,06,15,08,03,8.80
2016,06,15,08,04,8.80
2016,06,15,08,05,8.70
2016,06,15,08,06,8.70
2016,06,15,08,07,8.70
2016,06,15,08,08,8.70
2016,06,15,08,09,8.70
2016,06,15,08,10,8.70
2016,06,15,08,11,8.70
2016,06,15,08,12,8.70
2016,06,15,08,13,8.80
2016,06,15,08,14,8.80
2016,06,15,08,15,8.80
2016,06,15,08,16,8.80
2016,06,15,08,17,8.80
2016,06,15,08,18,8.80
2016,06,15,08,19,8.80
2016,06,15,08,20,8.80
2016,06,15,08,21,8.80
2016,06,15,08,22,8.90
2016,06,15,08,23,8.90
2016,06,15,08,24,8.90
2016,06,15,08,25,9.00
2016,06,15,08,26,9.00
2016,06,15,08,27,9.00
2016,06,15,08,28,9.00
2016,06,15,08,29,9.00
2016,06,15,08,30,9.00
2016,06,15,08,31,9.00
2016,06,15,08,32,9.10
2016,06,15,08,33,9.10
2016,06,15,08,34,9.10
2016,06,15,08,35,9.10
2016,06,15,08,36,9.10
2016,06,15,08,37,9.10
2016,06,15,08,38,9.20
2016,06,15,08,39,9.20
2016,06,15,08,40,9.20
2016,06,15,08,41,9.30
2016,06,15,08,42,9.30
2016,06,15,08,43,9.30
2016,06,15,08,44,9.30
2016,06,15,08,45,9.30
2016,06,15,08,46,9.30
2016,06,15,08,47,9.30
2016,06,15,08,48,9.30
2016,06,15,08,49,9.30
2016,06,15,08,50,9.30
2016,06,15,08,51,9.30
2016,06,15,08,52,9.30
2016,06,15,08,53,9.30
2016,06,15,08,54,9.30
2016,06,15,08,55,9.30
2016,06,15,08,56,9.30
2016,06,15,08,57,9.30
2016,06,15,08,58,9.30
2016,06,15,08,59,9.40
2016,06,15,09,00,9.40
2016,06,15,09,04,9.50
2016,06,15,09,05,9.50
2016,06,15,09,06,9.50
2016,06,15,09,07,9.60
2016,06,15,09,08,9.60
2016,06,15,09,09,9.70
2016,06,15,09,10,9.80
2016,06,15,09,11,9.80
2016,06,15,09,12,9.80
2016,06,15,09,13,9.80
2016,06,15,09,14,9.80
2016,06,15,09,15,9.90
2016,06,15,09,16,9.90
2016,06,15,09,17,10.00
2016,06,15,09,18,10.00
2016,06,15,09,19,10.10
2016,06,15,09,20,10.20
2016,06,15,09,21,10.30
2016,06,15,09,22,10.30
2016,06,15,09,23,10.40
2016,06,15,09,24,10.50
2016,06,15,09,25,10.70
2016,06,15,09,26,10.80
2016,06,15,09,27,10.90
2016,06,15,09,28,11.10
2016,06,15,09,29,11.30
2016,06,15,09,30,11.40
2016,06,15,09,31,11.60
2016,06,15,09,32,11.70
2016,06,15,09,33,11.70
2016,06,15,09,34,11.80
2016,06,15,09,35,11.70
2016,06,15,09,36,11.60
2016,06,15,09,37,11.60
2016,06,15,09,38,11.60
2016,06,15,09,39,11.60
2016,06,15,09,40,11.60
2016,06,15,09,41,11.60
2016,06,15,09,42,11.50
2016,06,15,09,43,11.50
2016,06,15,09,44,11.50
2016,06,15,09,45,11.40
2016,06,15,09,46,11.40
2016,06,15,09,47,11.40
2016,06,15,09,48,11.40
2016,06,15,09,49,11.40
2016,06,15,09,50,11.50
2016,06,15,09,51,11.50
2016,06,15,09,52,11.60
2016,06,15,09,53,11.70
2016,06,15,09,54,11.70
2016,06,15,09,55,11.70
2016,06,15,09,56,11.60
2016,06,15,09,57,11.60
2016,06,15,09,58,11.60
2016,06,15,09,59,11.50
2016,06,15,10,00,11.50
2016,06,15,10,01,11.50
2016,06,15,10,02,11.50
2016,06,15,10,03,11.50
2016,06,15,10,04,11.60
2016,06,15,10,05,11.70
2016,06,15,10,06,11.80
2016,06,15,10,07,11.80
2016,06,15,10,08,11.80
2016,06,15,10,09,11.80
2016,06,15,10,10,11.80
2016,06,15,10,11,11.80
2016,06,15,10,12,11.90
2016,06,15,10,13,11.90
2016,06,15,10,14,12.00
2016,06,15,10,15,12.00
2016,06,15,10,16,12.10
2016,06,15,10,17,12.20
2016,06,15,10,18,12.20
2016,06,15,10,19,12.20
2016,06,15,10,20,12.20
2016,06,15,10,21,12.20
2016,06,15,10,22,12.20
2016,06,15,10,23,12.20
2016,06,15,10,24,12.30
2016,06,15,10,25,12.30
2016,06,15,10,26,12.30
2016,06,15,10,27,12.40
2016,06,15,10,28,12.50
2016,06,15,10,29,12.50
2016,06,15,10,30,12.60
2016,06,15,10,31,12.70
2016,06,15,10,32,12.70
2016,06,15,10,33,12.70
2016,06,15,10,34,12.70
2016,06,15,10,35,12.70
2016,06,15,10,36,12.60
2016,06,15,10,37,12.60
2016,06,15,10,38,12.50
2016,06,15,10,39,12.50
2016,06,15,10,40,12.40
2016,06,15,10,41,12.40
2016,06,15,10,42,12.30
2016,06,15,10,43,12.40
2016,06,15,10,44,12.50
2016,06,15,10,45,12.50
2016,06,15,10,46,12.60
2016,06,15,10,47,12.60
2016,06,15,10,48,12.70
2016,06,15,10,49,12.70
2016,06,15,10,50,12.80
2016,06,15,10,51,12.80
2016,06,15,10,52,12.80
2016,06,15,10,53,12.80
2016,06,15,10,54,12.80
2016,06,15,10,55,12.90
2016,06,15,10,56,12.90
2016,06,15,10,57,13.00
2016,06,15,10,58,13.00
2016,06,15,10,59,13.10
2016,06,15,11,00,13.00
2016,06,15,11,01,13.00
2016,06,15,11,02,12.90
2016,06,15,11,03,12.80
2016,06,15,11,04,12.80
2016,06,15,11,05,12.80
2016,06,15,11,06,12.80
2016,06,15,11,07,12.70
2016,06,15,11,08,12.70
2016,06,15,11,09,12.70
2016,06,15,11,10,12.60
2016,06,15,11,11,12.50
2016,06,15,11,12,12.50
2016,06,15,11,13,12.40
2016,06,15,11,14,12.30
2016,06,15,11,15,12.30
2016,06,15,11,16,12.20
2016,06,15,11,17,12.10
2016,06,15,11,18,12.10
2016,06,15,11,19,12.10
2016,06,15,11,20,12.00
2016,06,15,11,21,12.00
2016,06,15,11,22,12.10
2016,06,15,11,23,12.10
2016,06,15,11,24,12.10
2016,06,15,11,25,12.10
2016,06,15,11,26,12.10
2016,06,15,11,27,12.20
2016,06,15,11,28,12.20
2016,06,15,11,29,12.30
2016,06,15,11,30,12.30
2016,06,15,11,31,12.30
2016,06,15,11,32,12.30
2016,06,15,11,33,12.30
2016,06,15,11,34,12.30
2016,06,15,11,35,12.30
2016,06,15,11,36,12.30
2016,06,15,11,37,12.30
2016,06,15,11,38,12.30
2016,06,15,11,39,12.30
2016,06,15,11,40,12.40
2016,06,15,11,41,12.40
2016,06,15,11,42,12.40
2016,06,15,11,43,12.40
2016,06,15,11,44,12.50
2016,06,15,11,45,12.50
2016,06,15,11,46,12.60
2016,06,15,11,47,12.60
2016,06,15,11,48,12.60
2016,06,15,11,49,12.60
2016,06,15,11,50,12.70
2016,06,15,11,51,12.80
2016,06,15,11,52,12.90
2016,06,15,11,53,13.00
2016,06,15,11,54,13.10
2016,06,15,11,55,13.20
2016,06,15,11,56,13.30
2016,06,15,11,57,13.40
2016,06,15,11,58,13.50
2016,06,15,11,59,13.70
2016,06,15,12,00,13.70
2016,06,15,12,01,13.80
2016,06,15,12,02,13.90
2016,06,15,12,03,14.00
2016,06,15,12,04,14.10
2016,06,15,12,05,14.20
2016,06,15,12,06,14.20
2016,06,15,12,07,14.30
2016,06,15,12,08,14.30
2016,06,15,12,09,14.40
2016,06,15,12,10,14.50
2016,06,15,12,11,14.60
2016,06,15,12,12,14.70
2016,06,15,12,13,14.80
2016,06,15,12,14,15.00
2016,06,15,12,15,14.90
2016,06,15,12,16,15.00
2016,06,15,12,17,15.00
2016,06,15,12,18,14.90
2016,06,15,12,19,14.90
2016,06,15,12,20,14.80
2016,06,15,12,21,14.70
2016,06,15,12,22,14.70
2016,06,15,12,23,14.80
2016,06,15,12,24,14.80
2016,06,15,12,25,14.80
2016,06,15,12,26,14.80
2016,06,15,12,27,14.70
2016,06,15,12,28,14.70
2016,06,15,12,29,14.70
2016,06,15,12,30,14.80
2016,06,15,12,31,14.90
2016,06,15,12,32,14.90
2016,06,15,12,33,14.80
2016,06,15,12,34,14.80
2016,06,15,12,35,14.80
2016,06,15,12,36,14.80
2016,06,15,12,37,14.90
2016,06,15,12,38,14.90
2016,06,15,12,39,15.00
2016,06,15,12,40,15.10
2016,06,15,12,41,15.10
2016,06,15,12,42,15.00
2016,06,15,12,43,15.00
2016,06,15,12,44,15.00
2016,06,15,12,45,15.00
2016,06,15,12,46,15.00
2016,06,15,12,47,15.00
2016,06,15,12,48,15.10
2016,06,15,12,49,15.20
2016,06,15,12,50,15.30
2016,06,15,12,51,15.30
2016,06,15,12,52,15.30
2016,06,15,12,53,15.30
2016,06,15,12,54,15.30
2016,06,15,12,55,15.30
2016,06,15,12,56,15.30
2016,06,15,12,57,15.20
2016,06,15,12,58,15.20
2016,06,15,12,59,15.20
2016,06,15,13,00,15.20
2016,06,15,13,01,15.20
2016,06,15,13,02,15.30
2016,06,15,13,03,15.40
2016,06,15,13,04,15.50
2016,06,15,13,05,15.60
2016,06,15,13,06,15.70
2016,06,15,13,07,15.70
2016,06,15,13,08,15.70
2016,06,15,13,09,15.70
2016,06,15,13,10,15.70
2016,06,15,13,11,15.60
2016,06,15,13,12,15.50
2016,06,15,13,13,15.40
2016,06,15,13,14,15.30
2016,06,15,13,15,15.20
2016,06,15,13,16,15.20
2016,06,15,13,17,15.30
2016,06,15,13,18,15.30
2016,06,15,13,19,15.40
2016,06,15,13,20,15.50
2016,06,15,13,21,15.50
2016,06,15,13,22,15.50
2016,06,15,13,23,15.50
2016,06,15,13,24,15.40
2016,06,15,13,25,15.40
2016,06,15,13,26,15.40
2016,06,15,13,27,15.30
2016,06,15,13,28,15.40
2016,06,15,13,29,15.30
2016,06,15,13,30,15.20
2016,06,15,13,31,15.20
2016,06,15,13,32,15.10
2016,06,15,13,33,15.10
2016,06,15,13,34,15.10
2016,06,15,13,35,15.10
2016,06,15,13,36,15.10
2016,06,15,13,37,15.10
2016,06,15,13,38,15.10
2016,06,15,13,39,15.00
2016,06,15,13,40,15.00
2016,06,15,13,41,15.00
2016,06,15,13,42,15.00
2016,06,15,13,43,15.00
2016,06,15,13,44,15.00
2016,06,15,13,45,15.00
2016,06,15,13,46,15.00
2016,06,15,13,47,15.00
2016,06,15,13,48,15.00
2016,06,15,13,49,15.00
2016,06,15,13,50,15.10
2016,06,15,13,51,15.20
2016,06,15,13,52,15.30
2016,06,15,13,53,15.50
2016,06,15,13,54,15.60
2016,06,15,13,55,15.60
2016,06,15,13,56,15.60
2016,06,15,13,57,15.50
2016,06,15,13,58,15.40
2016,06,15,13,59,15.30
2016,06,15,14,00,15.30
2016,06,15,14,01,15.10
2016,06,15,14,02,14.90
2016,06,15,14,03,14.80
2016,06,15,14,04,14.80
2016,06,15,14,05,14.90
2016,06,15,14,06,15.00
2016,06,15,14,07,15.10
2016,06,15,14,08,15.30
2016,06,15,14,09,15.30
2016,06,15,14,10,15.40
2016,06,15,14,11,15.40
2016,06,15,14,12,15.40
2016,06,15,14,13,15.30
2016,06,15,14,14,15.40
2016,06,15,14,15,15.30
2016,06,15,14,16,15.40
2016,06,15,14,17,15.50
2016,06,15,14,18,15.60
2016,06,15,14,19,15.60
2016,06,15,14,20,15.60
2016,06,15,14,21,15.50
2016,06,15,14,22,15.40
2016,06,15,14,23,15.30
2016,06,15,14,24,15.30
2016,06,15,14,25,15.30
2016,06,15,14,26,15.30
2016,06,15,14,27,15.30
2016,06,15,14,28,15.40
2016,06,15,14,29,15.40
2016,06,15,14,30,15.40
2016,06,15,14,31,15.40
2016,06,15,14,32,15.40
2016,06,15,14,33,15.40
2016,06,15,14,34,15.50
2016,06,15,14,35,15.60
2016,06,15,14,36,15.60
2016,06,15,14,37,15.70
2016,06,15,14,38,15.80
2016,06,15,14,39,15.80
2016,06,15,14,40,15.80
2016,06,15,14,41,15.80
2016,06,15,14,42,15.80
2016,06,15,14,43,15.90
2016,06,15,14,44,15.90
2016,06,15,14,45,15.90
2016,06,15,14,46,16.00
2016,06,15,14,47,16.10
2016,06,15,14,48,16.10
2016,06,15,14,49,16.00
2016,06,15,14,50,15.90
2016,06,15,14,51,15.80
2016,06,15,14,52,15.60
2016,06,15,14,53,15.40
2016,06,15,14,54,15.20
2016,06,15,14,55,15.10
2016,06,15,14,56,15.00
2016,06,15,14,57,15.00
2016,06,15,14,58,15.00
2016,06,15,14,59,15.00
2016,06,15,15,00,15.00
2016,06,15,15,01,15.10
2016,06,15,15,02,15.30
2016,06,15,15,03,15.40
2016,06,15,15,04,15.50
2016,06,15,15,05,15.70
2016,06,15,15,06,15.70
2016,06,15,15,07,15.80
2016,06,15,15,08,15.90
2016,06,15,15,09,15.90
2016,06,15,15,10,15.80
2016,06,15,15,11,15.70
2016,06,15,15,12,15.70
2016,06,15,15,13,15.70
2016,06,15,15,14,15.70
2016,06,15,15,15,15.80
2016,06,15,15,16,15.70
2016,06,15,15,17,15.60
2016,06,15,15,18,15.40
2016,06,15,15,19,15.30
2016,06,15,15,20,15.20
2016,06,15,15,21,15.10
2016,06,15,15,22,15.10
2016,06,15,15,23,15.10
2016,06,15,15,24,15.20
2016,06,15,15,25,15.30
2016,06,15,15,26,15.40
2016,06,15,15,27,15.50
2016,06,15,15,28,15.60
2016,06,15,15,29,15.80
2016,06,15,15,30,15.90
2016,06,15,15,31,15.90
2016,06,15,15,32,15.90
2016,06,15,15,33,15.90
2016,06,15,15,34,15.90
2016,06,15,15,35,15.90
2016,06,15,15,36,15.90
2016,06,15,15,37,16.00
2016,06,15,15,38,16.00
2016,06,15,15,39,16.00
2016,06,15,15,40,15.90
2016,06,15,15,41,15.80
2016,06,15,15,42,15.70
2016,06,15,15,43,15.70
2016,06,15,15,44,15.70
2016,06,15,15,45,15.70
2016,06,15,15,46,15.60
2016,06,15,15,47,15.60
2016,06,15,15,48,15.70
2016,06,15,15,49,15.70
2016,06,15,15,50,15.70
2016,06,15,15,51,15.80
2016,06,15,15,52,15.70
2016,06,15,15,53,15.60
2016,06,15,15,54,15.50
2016,06,15,15,55,15.50
2016,06,15,15,56,15.60
2016,06,15,15,57,15.60
2016,06,15,15,58,15.60
2016,06,15,15,59,15.60
2016,06,15,16,00,15.60
2016,06,15,16,01,15.70
2016,06,15,16,02,15.70
2016,06,15,16,03,15.80
2016,06,15,16,04,15.80
2016,06,15,16,05,15.80
2016,06,15,16,06,15.70
2016,06,15,16,07,15.70
2016,06,15,16,08,15.60
2016,06,15,16,09,15.60
2016,06,15,16,10,15.60
2016,06,15,16,11,15.60
2016,06,15,16,12,15.60
2016,06,15,16,13,15.70
2016,06,15,16,14,15.70
2016,06,15,16,15,15.70
2016,06,15,16,16,15.80
2016,06,15,16,17,15.80
2016,06,15,16,18,15.70
2016,06,15,16,19,15.70
2016,06,15,16,20,15.60
2016,06,15,16,21,15.60
2016,06,15,16,22,15.50
2016,06,15,16,23,15.40
2016,06,15,16,24,15.40
2016,06,15,16,25,15.30
2016,06,15,16,26,15.30
2016,06,15,16,27,15.30
2016,06,15,16,28,15.40
2016,06,15,16,29,15.40
2016,06,15,16,30,15.40
2016,06,15,16,31,15.40
2016,06,15,16,32,15.30
2016,06,15,16,33,15.20
2016,06,15,16,34,15.20
2016,06,15,16,35,15.20
2016,06,15,16,36,15.20
2016,06,15,16,37,15.20
2016,06,15,16,38,15.20
2016,06,15,16,39,15.30
2016,06,15,16,40,15.30
2016,06,15,16,41,15.30
2016,06,15,16,42,15.30
2016,06,15,16,43,15.40
2016,06,15,16,44,15.30
2016,06,15,16,45,15.30
2016,06,15,16,46,15.30
2016,06,15,16,47,15.30
2016,06,15,16,48,15.30
2016,06,15,16,49,15.30
2016,06,15,16,50,15.30
2016,06,15,16,51,15.40
2016,06,15,16,52,15.40
2016,06,15,16,53,15.40
2016,06,15,16,54,15.40
2016,06,15,16,55,15.40
2016,06,15,16,56,15.40
2016,06,15,16,57,15.30
2016,06,15,16,58,15.30
2016,06,15,16,59,15.30
2016,06,15,17,00,15.30
2016,06,15,17,01,15.30
2016,06,15,17,02,15.30
2016,06,15,17,03,15.30
2016,06,15,17,04,15.30
2016,06,15,17,05,15.30
2016,06,15,17,06,15.40
2016,06,15,17,07,15.40
2016,06,15,17,08,15.40
2016,06,15,17,09,15.50
2016,06,15,17,10,15.50
2016,06,15,17,11,15.50
2016,06,15,17,12,15.50
2016,06,15,17,13,15.50
2016,06,15,17,14,15.50
2016,06,15,17,15,15.50
2016,06,15,17,16,15.50
2016,06,15,17,17,15.40
2016,06,15,17,18,15.40
2016,06,15,17,19,15.40
2016,06,15,17,20,15.30
2016,06,15,17,21,15.30
2016,06,15,17,22,15.30
2016,06,15,17,23,15.30
2016,06,15,17,24,15.30
2016,06,15,17,25,15.30
2016,06,15,17,26,15.20
2016,06,15,17,27,15.30
2016,06,15,17,28,15.30
2016,06,15,17,29,15.40
2016,06,15,17,30,15.40
2016,06,15,17,31,15.40
2016,06,15,17,32,15.40
2016,06,15,17,33,15.40
2016,06,15,17,34,15.30
2016,06,15,17,35,15.40
2016,06,15,17,36,15.30
2016,06,15,17,37,15.20
2016,06,15,17,38,15.10
2016,06,15,17,39,15.00
2016,06,15,17,40,15.00
2016,06,15,17,41,15.00
2016,06,15,17,42,15.00
2016,06,15,17,43,15.10
2016,06,15,17,44,15.20
2016,06,15,17,45,15.30
2016,06,15,17,46,15.40